Change the Weather History Date:

Sunday, August 3, 2014

  Actual Average Record
Temperature  
Mean Temperature 35 °F 40 °F  
Max Temperature 39 °F 46 °F 64 °F (1999)
Min Temperature 30 °F 35 °F 26 °F (1945)
Degree Days  
Heating Degree Days 30 25  
Month to date heating degree days 88 75  
Since 1 June heating degree days 1849 1702  
Since 1 July heating degree days 916 822  
Cooling Degree Days 0    
Month to date cooling degree days 0  
Year to date cooling degree days 0  
Since 1 June cooling degree days 0  
Moisture  
Dew Point 33 °F    
Average Humidity 0    
Maximum Humidity 0    
Minimum Humidity 0    
Precipitation  
Precipitation T in 0.03 in 0.47 in (1997)
Month to date precipitation 0.01 0.10  
Year to date precipitation 4.11 2.10  
Snow  
Snow 0.00 in 0.00 in 1.80 in (1932)
Month to date snowfall 0.0 0.0  
Since 1 June snowfall 1.8 0.9  
Since 1 July snowfall 0.9 0.2  
Snow Depth 0.00 in    
Sea Level Pressure  
Sea Level Pressure 30.06 in    
Wind  
Wind Speed 10 mph (NNW)    
Max Wind Speed 15 mph    
Max Gust Speed 17 mph    
Visibility 3 miles    
Events Fog    
T = Trace of Precipitation, MM = Missing Value Source: NWS Daily Summary

Daily Weather History Graph

Daily Weather History Graph

Search for Another Location

Airport or City:

Trip Planner

Search our weather history database for the weather conditions in past years. The results will help you decide how hot, cold, wet, or windy it might be!

Date:

Astronomy

Aug. 03, 2014 Rise Set
Actual Time 3:24 AM AKDT 1:29 AM AKDT
Civil Twilight Sun does not rise Sun does not rise
Nautical Twilight Sun does not rise Sun does not rise
Astronomical Twilight Sun does not rise Sun does not rise
Moon 5:24 PM AKDT (8/3) 11:09 PM AKDT (8/3)
Length of Visible Light 24h 00m
Length of Day
22h 04m
Waxing Crescent, 48% of the Moon is Illuminated
Aug 3
Waxing Crescent
Aug 3
First Quarter
Aug 10
Full
Aug 17
Last Quarter
Aug 25
New

Hourly Weather History & Observations

Time (AKDT) Temp. Windchill Dew Point Humidity Pressure Visibility Wind Dir Wind Speed Gust Speed Precip Events Conditions
12:50 AM 30.2 °F 21.9 °F 30.2 °F 100% 30.04 in 1.5 mi West 9.2 mph - N/A   Overcast
12:53 AM 30.9 °F 22.2 °F 30.0 °F 96% 30.04 in 1.0 mi West 10.4 mph - N/A   Overcast
1:37 AM 30.0 °F 21.7 °F 30.0 °F 100% 30.04 in 3.0 mi West 9.2 mph - N/A   Overcast
1:53 AM 30.0 °F 21.7 °F 30.0 °F 100% 30.04 in 3.0 mi West 9.2 mph - N/A   Overcast
2:01 AM 30.0 °F 23.2 °F 30.0 °F 100% 30.04 in 1.5 mi West 6.9 mph - N/A   Overcast
2:12 AM 30.9 °F 23.5 °F 30.0 °F 96% 30.04 in 4.0 mi West 8.1 mph - N/A   Overcast
2:53 AM 30.9 °F 22.8 °F 30.0 °F 96% 30.05 in 10.0 mi WNW 9.2 mph - N/A   Overcast
3:53 AM 30.9 °F 24.3 °F 30.9 °F 100% 30.04 in 10.0 mi West 6.9 mph - N/A   Overcast
4:26 AM 32.0 °F 24.2 °F 30.9 °F 96% 30.03 in 10.0 mi West 9.2 mph - N/A   Overcast
4:53 AM 32.0 °F 23.6 °F 30.9 °F 96% 30.04 in 10.0 mi West 10.4 mph - N/A   Overcast
5:01 AM 32.0 °F 24.2 °F 30.9 °F 96% 30.03 in 9.0 mi West 9.2 mph - N/A   Overcast
5:53 AM 33.1 °F 24.9 °F 32.0 °F 96% 30.03 in 8.0 mi West 10.4 mph - N/A   Overcast
6:04 AM 33.1 °F 25.5 °F 33.1 °F 100% 30.02 in 2.5 mi West 9.2 mph - N/A   Overcast
6:15 AM 33.1 °F 25.5 °F 33.1 °F 100% 30.02 in 1.0 mi West 9.2 mph - N/A   Overcast
6:23 AM 33.1 °F 25.5 °F 33.1 °F 100% 30.02 in 0.5 mi West 9.2 mph - N/A Fog Fog
6:43 AM 34.0 °F 26.6 °F 33.1 °F 96% 30.02 in 0.8 mi West 9.2 mph - N/A   Mist
6:53 AM 34.0 °F 26.6 °F 33.1 °F 96% 30.03 in 0.8 mi WNW 9.2 mph - N/A   Mist
7:12 AM 34.0 °F 26.0 °F 33.1 °F 96% 30.02 in 0.5 mi WNW 10.4 mph - N/A Fog Fog
7:53 AM 34.0 °F 26.0 °F 34.0 °F 100% 30.03 in 0.5 mi WNW 10.4 mph - N/A Fog Fog
8:02 AM 34.0 °F 26.0 °F 34.0 °F 100% 30.02 in 1.0 mi West 10.4 mph - N/A   Mist
8:14 AM 34.0 °F 26.6 °F 34.0 °F 100% 30.02 in 0.8 mi West 9.2 mph - N/A   Mist
8:53 AM 34.0 °F 26.0 °F 34.0 °F 100% 30.03 in 0.5 mi WNW 10.4 mph - N/A Fog Fog
9:18 AM 34.0 °F 26.6 °F 34.0 °F 100% 30.03 in 0.8 mi WNW 9.2 mph - 0.00 in   Light Drizzle
9:32 AM 35.1 °F 27.4 °F 34.0 °F 96% 30.03 in 1.0 mi NW 10.4 mph - 0.00 in   Light Drizzle
9:40 AM 35.1 °F 27.4 °F 34.0 °F 96% 30.03 in 1.2 mi NW 10.4 mph - 0.00 in   Overcast
9:53 AM 35.1 °F 26.9 °F 34.0 °F 96% 30.03 in 1.2 mi NW 11.5 mph - 0.00 in   Overcast
10:49 AM 35.6 °F 28.0 °F 33.8 °F 93% 30.03 in 0.8 mi NNW 10.4 mph - N/A   Mist
10:53 AM 35.1 °F 27.4 °F 34.0 °F 96% 30.04 in 1.2 mi NNW 10.4 mph - N/A   Overcast
11:08 AM 34.0 °F 25.5 °F 34.0 °F 100% 30.04 in 2.0 mi NNW 11.5 mph - N/A   Overcast
11:17 AM 35.1 °F 27.9 °F 34.0 °F 96% 30.04 in 1.5 mi NNW 9.2 mph - N/A   Overcast
11:28 AM 35.1 °F 27.9 °F 34.0 °F 96% 30.04 in 0.5 mi NNW 9.2 mph - N/A Fog Fog
11:53 AM 35.1 °F 27.9 °F 34.0 °F 96% 30.04 in 0.2 mi NNW 9.2 mph - 0.00 in Fog Light Drizzle
12:02 PM 35.1 °F 27.9 °F 34.0 °F 96% 30.04 in 0.2 mi NNW 9.2 mph - 0.00 in Fog Light Drizzle
12:12 PM 35.1 °F 27.9 °F 34.0 °F 96% 30.04 in 1.0 mi North 9.2 mph - 0.00 in   Light Drizzle
12:22 PM 35.1 °F 28.6 °F 34.0 °F 96% 30.04 in 1.0 mi NNW 8.1 mph - 0.00 in   Light Drizzle
12:53 PM 35.1 °F 28.6 °F 34.0 °F 96% 30.05 in 1.5 mi NNW 8.1 mph - 0.00 in   Overcast
1:53 PM 35.1 °F 29.3 °F 34.0 °F 96% 30.06 in 1.8 mi North 6.9 mph - N/A   Overcast
2:53 PM 36.0 °F 29.0 °F 35.1 °F 97% 30.07 in 2.5 mi NNE 9.2 mph - 0.00 in   Light Drizzle
3:12 PM 36.0 °F 29.6 °F 35.1 °F 97% 30.06 in 5.0 mi NNE 8.1 mph - 0.00 in   Overcast
3:53 PM 36.0 °F 28.5 °F 34.0 °F 93% 30.08 in 7.0 mi NNE 10.4 mph - 0.00 in   Light Drizzle
4:53 PM 37.9 °F 30.0 °F 35.1 °F 89% 30.08 in 7.0 mi NE 12.7 mph - 0.00 in   Overcast
5:53 PM 37.4 °F 29.8 °F 35.6 °F 93% 30.09 in 8.0 mi ENE 11.5 mph - N/A   Overcast
6:53 PM 37.0 °F 28.5 °F 35.1 °F 93% 30.10 in 4.0 mi NE 13.8 mph - N/A   Overcast
7:06 PM 37.0 °F 28.9 °F 35.1 °F 93% 30.09 in 2.5 mi NE 12.7 mph - N/A   Overcast
7:53 PM 36.0 °F 28.0 °F 34.0 °F 93% 30.10 in 2.5 mi NE 11.5 mph - N/A   Overcast
8:10 PM 35.1 °F 26.9 °F 34.0 °F 96% 30.10 in 1.5 mi NE 11.5 mph - N/A   Overcast
8:42 PM 35.1 °F 26.9 °F 34.0 °F 96% 30.10 in 2.5 mi NE 11.5 mph - N/A   Overcast
8:53 PM 35.1 °F 26.4 °F 34.0 °F 96% 30.11 in 4.0 mi ENE 12.7 mph - N/A   Overcast
9:22 PM 34.0 °F 25.5 °F 33.1 °F 96% 30.11 in 1.0 mi ENE 11.5 mph - N/A   Overcast
9:30 PM 34.0 °F 25.5 °F 33.1 °F 96% 30.11 in 0.8 mi ENE 11.5 mph - N/A   Overcast
9:53 PM 34.0 °F 26.0 °F 33.1 °F 96% 30.12 in 0.8 mi ENE 10.4 mph - 0.00 in   Light Drizzle
10:02 PM 34.0 °F 25.5 °F 33.1 °F 96% 30.11 in 1.0 mi ENE 11.5 mph - 0.00 in   Light Drizzle
10:09 PM 33.1 °F 23.9 °F 33.1 °F 100% 30.11 in 0.8 mi ENE 12.7 mph - 0.00 in   Light Drizzle
10:32 PM 33.1 °F 24.4 °F 33.1 °F 100% 30.12 in 0.5 mi ENE 11.5 mph - 0.00 in Fog Light Drizzle
10:46 PM 33.1 °F 24.4 °F 32.0 °F 96% 30.12 in 1.0 mi ENE 11.5 mph - 0.00 in   Light Drizzle
10:53 PM 32.0 °F 23.6 °F 32.0 °F 100% 30.13 in 1.5 mi NE 10.4 mph - 0.00 in   Light Drizzle
11:42 PM 32.0 °F 23.6 °F 30.9 °F 96% 30.13 in 0.5 mi NE 10.4 mph - 0.00 in Fog Fog
11:53 PM 32.0 °F 22.5 °F 30.9 °F 96% 30.13 in 0.5 mi ENE 12.7 mph - 0.00 in Fog Fog